Location: *
(46.0770°N, 1.6444°E)
Time: 19:31:27
(UTC+00:00)

DMSP B5D2-2 - Pass Details

Date: 16 September 2019
Orbit: 790 x 806 km, 98.4° (Epoch: 20 October)

Event Time Altitude Azimuth Distance (km) Brightness Sun altitude
Rises 20:53:12 0° 11° (N) 3,332 7.7 -28.0°
Reaches altitude 10° 20:55:34 10° 8° (N) 2,397 6.9 -28.3°
Maximum altitude 21:00:48 65° 288° (WNW) 886 4.4 -29.0°
Enters shadow 21:01:30 58° 248° (WSW) 934 4.4 -29.1°
